Date String (YYYY-MM-DD hh:mm:ss) UTC,Instrument flags,Ambient pressure (hPa),Sample flow (lpm),Bypass flow (lpm),Sample temperature (°C),Ambient temperature (°C),ASC tube jacket temperature (°C),LED temperature (°C),Box temperature (°C),Sample RH (%),Span deviation,Mass concentration (μg/m³),Mass concentration (μg/m³),Mass concentration (μg/m³)
DateTimeUTC,F1_M11,P_M11,Q1_M11,Q2_M11,T1_M11,T2_M11,T3_M11,T4_M11,T5_M11,U1_M11,ZSPAN_M11,X0_M11,X2_M11,X1_M11
2022-03-07 01:00:00,,0827.7,5.00,0.00,22.5,21.5,00.0,31.6,24.2,10.0,0000.0,0005.04,0003.76,0003.66
2022-03-07 01:01:00,,0827.7,5.00,0.00,22.5,21.5,00.0,31.6,24.2,10.0,0000.0,0005.09,0003.77,0003.65
2022-03-07 01:02:00,,0827.7,5.00,0.00,22.5,21.5,00.0,31.5,24.2,10.1,0000.0,0005.09,0003.77,0003.64
2022-03-07 01:03:00,,0827.7,5.00,0.00,22.4,21.5,00.0,31.5,24.1,10.1,0000.0,0005.02,0003.76,0003.65
2022-03-07 01:04:00,,0827.7,4.99,0.00,22.4,21.5,00.0,31.5,24.1,10.1,0000.0,0004.98,0003.76,0003.64
2022-03-07 01:05:00,,0827.7,5.00,0.00,22.4,21.5,00.0,31.5,24.1,10.1,0000.0,0004.82,0003.74,0003.64
2022-03-07 01:06:00,,0827.7,4.99,0.00,22.4,21.6,00.0,31.5,24.1,10.2,0000.0,0004.88,0003.75,0003.64
2022-03-07 01:07:00,,0827.7,5.01,0.00,22.5,22.2,00.0,31.5,24.2,10.1,0000.0,0004.94,0003.76,0003.64
2022-03-07 01:08:00,,0827.8,5.00,0.00,22.6,22.9,00.0,31.5,24.5,10.1,0000.0,0004.94,0003.76,0003.64
2022-03-07 01:09:00,,0827.8,5.00,0.00,22.7,23.2,00.0,31.6,24.7,10.0,0000.0,0005.00,0003.75,0003.64
2022-03-07 01:10:00,,0827.8,5.01,0.00,22.7,22.9,00.0,31.6,24.7,10.0,0000.0,0005.02,0003.75,0003.64
2022-03-07 01:11:00,,0827.9,5.00,0.00,22.7,22.6,00.0,31.6,24.6,09.9,0000.0,0004.82,0003.73,0003.62
2022-03-07 01:12:00,,0827.8,5.01,0.00,22.7,22.3,00.0,31.6,24.5,09.9,0000.0,0004.76,0003.71,0003.60
2022-03-07 01:13:00,,0827.8,5.00,0.00,22.7,22.1,00.0,31.6,24.4,09.9,0000.0,0004.69,0003.68,0003.58
2022-03-07 01:14:00,,0827.8,5.00,0.00,22.6,21.9,00.0,31.6,24.4,09.8,0000.0,0004.64,0003.66,0003.56
2022-03-07 01:15:00,,0827.9,4.99,0.00,22.6,21.9,00.0,31.6,24.3,09.8,0000.0,0004.60,0003.65,0003.56
2022-03-07 01:16:00,,0827.9,4.99,0.00,22.6,21.8,00.0,31.6,24.3,09.8,0000.0,0004.68,0003.66,0003.56
2022-03-07 01:17:00,,0827.9,5.02,0.00,22.6,21.7,00.0,31.6,24.2,09.8,0000.0,0004.68,0003.66,0003.56
2022-03-07 01:18:00,,0828.0,5.00,0.00,22.5,21.7,00.0,31.6,24.2,09.8,0000.0,0004.63,0003.65,0003.55
2022-03-07 01:19:00,,0828.0,5.00,0.00,22.5,21.7,00.0,31.5,24.2,09.8,0000.0,0004.72,0003.66,0003.55
2022-03-07 01:20:00,,0828.0,5.00,0.00,22.5,21.7,00.0,31.5,24.2,09.8,0000.0,0004.70,0003.66,0003.53
2022-03-07 01:21:00,,0828.0,5.00,0.00,22.5,21.6,00.0,31.5,24.1,09.8,0000.0,0004.70,0003.67,0003.52
2022-03-07 01:22:00,,0828.0,5.00,0.00,22.4,21.6,00.0,31.5,24.1,09.8,0000.0,0004.88,0003.70,0003.52
2022-03-07 01:23:00,,0828.0,5.00,0.00,22.4,21.6,00.0,31.5,24.1,09.8,0000.0,0005.01,0003.70,0003.52
2022-03-07 01:24:00,,0828.2,4.99,0.00,22.5,22.2,00.0,31.5,24.2,09.8,0000.0,0005.09,0003.70,0003.52
2022-03-07 01:25:00,,0828.1,5.00,0.00,22.6,22.9,00.0,31.6,24.5,09.8,0000.0,0005.10,0003.70,0003.52
2022-03-07 01:26:00,,0828.0,5.00,0.00,22.7,23.3,00.0,31.6,24.7,09.7,0000.0,0005.09,0003.69,0003.51
2022-03-07 01:27:00,,0828.0,5.00,0.00,22.8,23.0,00.0,31.6,24.7,09.7,0000.0,0005.06,0003.68,0003.49
2022-03-07 01:28:00,,0828.0,4.99,0.00,22.7,22.6,00.0,31.6,24.6,09.7,0000.0,0005.05,0003.67,0003.48
2022-03-07 01:29:00,,0828.1,5.01,0.00,22.7,22.4,00.0,31.6,24.5,09.8,0000.0,0004.98,0003.66,0003.48
2022-03-07 01:30:00,,0828.2,5.00,0.00,22.7,22.2,00.0,31.6,24.4,09.8,0000.0,0004.91,0003.64,0003.47
2022-03-07 01:31:00,,0828.2,5.00,0.00,22.7,22.0,00.0,31.6,24.4,09.8,0000.0,0004.96,0003.65,0003.48
2022-03-07 01:32:00,,0828.2,5.00,0.00,22.6,21.9,00.0,31.6,24.3,09.8,0000.0,0004.97,0003.64,0003.47
2022-03-07 01:33:00,,0828.3,5.00,0.00,22.6,21.8,00.0,31.6,24.3,09.9,0000.0,0004.79,0003.62,0003.47
2022-03-07 01:34:00,,0828.3,5.01,0.00,22.6,21.8,00.0,31.6,24.2,09.9,0000.0,0004.57,0003.61,0003.47
2022-03-07 01:35:00,,0828.2,5.00,0.00,22.5,21.8,00.0,31.6,24.2,10.0,0000.0,0004.67,0003.62,0003.47
2022-03-07 01:36:00,,0828.2,5.00,0.00,22.5,21.7,00.0,31.6,24.2,10.0,0000.0,0004.81,0003.62,0003.47
2022-03-07 01:37:00,,0828.3,5.01,0.00,22.5,21.7,00.0,31.5,24.1,10.1,0000.0,0004.86,0003.64,0003.48
2022-03-07 01:38:00,,0828.3,4.99,0.00,22.5,21.6,00.0,31.5,24.1,10.1,0000.0,0004.93,0003.65,0003.49
2022-03-07 01:39:00,,0828.3,5.00,0.00,22.4,21.6,00.0,31.5,24.1,10.2,0000.0,0004.92,0003.66,0003.50
2022-03-07 01:40:00,,0828.3,5.00,0.00,22.4,21.6,00.0,31.5,24.1,10.2,0000.0,0005.08,0003.70,0003.52
2022-03-07 01:41:00,,0828.4,5.00,0.00,22.4,21.8,00.0,31.5,24.1,10.2,0000.0,0005.16,0003.73,0003.55
2022-03-07 01:42:00,,0828.4,5.00,0.00,22.5,22.4,00.0,31.6,24.3,10.2,0000.0,0005.12,0003.75,0003.58
2022-03-07 01:43:00,,0828.4,5.01,0.00,22.7,23.2,00.0,31.6,24.6,10.1,0000.0,0005.14,0003.77,0003.61
2022-03-07 01:44:00,,0828.4,5.00,0.00,22.7,23.2,00.0,31.6,24.7,10.1,0000.0,0005.36,0003.82,0003.63
2022-03-07 01:45:00,,0828.4,4.99,0.00,22.7,22.7,00.0,31.6,24.6,10.1,0000.0,0005.74,0003.86,0003.65
2022-03-07 01:46:00,,0828.4,5.00,0.00,22.7,22.3,00.0,31.6,24.5,10.1,0000.0,0005.64,0003.88,0003.69
2022-03-07 01:47:00,,0828.4,5.01,0.00,22.6,22.0,00.0,31.6,24.4,10.1,0000.0,0005.58,0003.92,0003.73
2022-03-07 01:48:00,,0828.4,5.00,0.00,22.6,21.8,00.0,31.6,24.3,10.1,0000.0,0005.64,0003.96,0003.77
2022-03-07 01:49:00,,0828.4,5.00,0.00,22.5,21.8,00.0,31.6,24.2,10.2,0000.0,0005.71,0004.00,0003.81
2022-03-07 01:50:00,,0828.4,5.01,0.00,22.5,21.7,00.0,31.6,24.1,10.2,0000.0,0005.77,0004.04,0003.84
2022-03-07 01:51:00,,0828.4,5.00,0.00,22.5,21.7,00.0,31.5,24.1,10.2,0000.0,0005.68,0004.02,0003.85
2022-03-07 01:52:00,,0828.5,5.01,0.00,22.4,21.6,00.0,31.5,24.1,10.2,0000.0,0005.69,0004.04,0003.86
2022-03-07 01:53:00,,0828.5,5.00,0.00,22.4,21.6,00.0,31.5,24.0,10.2,0000.0,0005.76,0004.06,0003.87
2022-03-07 01:54:00,,0828.5,4.99,0.00,22.4,21.6,00.0,31.5,24.0,10.2,0000.0,0005.80,0004.08,0003.89
2022-03-07 01:55:00,,0828.5,5.00,0.00,22.3,21.5,00.0,31.5,24.0,10.2,0000.0,0005.67,0004.07,0003.90
2022-03-07 01:56:00,,0828.9,5.00,0.00,22.3,21.5,00.0,31.5,23.9,10.1,0000.0,0005.30,0004.06,0003.90
2022-03-07 01:57:00,,0829.0,5.00,0.00,22.4,22.0,00.0,31.5,24.1,10.0,0000.0,0005.25,0004.04,0003.88
2022-03-07 01:58:00,,0829.0,5.01,0.00,22.5,22.8,00.0,31.5,24.4,09.9,0000.0,0005.15,0004.01,0003.86
2022-03-07 01:59:00,,0828.9,5.00,0.00,22.7,23.3,00.0,31.6,24.6,09.8,0000.0,0005.05,0003.98,0003.83
